This is the latest recevied weather packets stored in our database for station/object KI4MRC. If no packets are shown the sender has not sent any weather packets the latest 10 day(s).
| Time | Temp. | Humidity | Pressure | Rain* | Wind** | Luminosity | Snow |
|---|---|---|---|---|---|---|---|
| 1777749577 | 35° C | 45% | 1010.3 hPa | 0 mm | - | 238 W/m² | - |
| 1777749275 | 35° C | 45% | 1010.1 hPa | 0 mm | - | 365 W/m² | - |
| 1777748973 | 35° C | 46% | 1010.3 hPa | 0 mm | - | 265 W/m² | - |
| 1777748670 | 35° C | 46% | 1010.4 hPa | 0 mm | - | 702 W/m² | - |
| 1777748366 | 35° C | 46% | 1010.3 hPa | 0 mm | - | 859 W/m² | - |
| 1777748061 | 35° C | 47% | 1010.2 hPa | 0 mm | - | 524 W/m² | - |
| 1777747759 | 35° C | 44% | 1010.1 hPa | 0 mm | - | 541 W/m² | - |
| 1777747151 | 35° C | 46% | 1010.2 hPa | 0 mm | - | 919 W/m² | - |
| 1777746542 | 35° C | 46% | 1010.5 hPa | 0 mm | - | 931 W/m² | - |
| 1777745934 | 33.89° C | 50% | 1010.6 hPa | 0 mm | - | 985 W/m² | - |
| 1777745331 | 33.33° C | 53% | 1010.7 hPa | 0 mm | - | 1009 W/m² | - |
| 1777745028 | 33.89° C | 53% | 1010.9 hPa | 0 mm | - | 130 W/m² | - |
| 1777744724 | 32.78° C | 54% | 1010.9 hPa | 0 mm | - | 273 W/m² | - |
| 1777744115 | 33.89° C | 53% | 1010.7 hPa | 0 mm | - | 309 W/m² | - |
| 1777741690 | 33.89° C | 58% | 1011.1 hPa | 0 mm | - | 992 W/m² | - |
| 1777739869 | 33.33° C | 58% | 1011.3 hPa | 0 mm | - | 216 W/m² | - |
| 1777739264 | 33.33° C | 59% | 1011.5 hPa | 0 mm | - | 793 W/m² | - |
| 1777738657 | 32.78° C | 60% | 1011.5 hPa | 0 mm | - | 986 W/m² | - |
| 1777738052 | 32.22° C | 60% | 1011.6 hPa | 0 mm | - | 804 W/m² | - |
| 1777737751 | 32.78° C | 61% | 1011.6 hPa | 0 mm | - | 938 W/m² | - |
| 1777737449 | 32.78° C | 59% | 1011.7 hPa | 0 mm | - | 945 W/m² | - |
| 1777736223 | 32.78° C | 58% | 1011.8 hPa | 0 mm | - | 805 W/m² | - |
| 1777735920 | 32.78° C | 59% | 1011.8 hPa | 0 mm | - | 814 W/m² | - |
| 1777735617 | 32.78° C | 61% | 1012 hPa | 0 mm | - | 755 W/m² | - |
| 1777735314 | 32.22° C | 64% | 1011.9 hPa | 0 mm | - | 825 W/m² | - |
* Rain latest hour (hover to see other rain measurements)
** Current wind speed in m/s (hover to see current wind gust speed)